Time,TemperatureF,DewpointF,PressureIn,WindDirection,WindDirectionDegrees,WindSpeedMPH,WindSpeedGustMPH,Humidity,HourlyPrecipIn,Conditions,Clouds,dailyrainin,SoftwareType,DateUTC
2013-08-31 00:05:00,53.7,48.0,29.88,SSW,200,0.0,0.0,81,0.00,,,0.00,weatherlink.com 1.10,2013-08-31 06:05:00,
2013-08-31 00:20:00,54.2,48.0,29.88,SSW,201,0.0,1.0,80,0.00,,,0.00,weatherlink.com 1.10,2013-08-31 06:20:00,
2013-08-31 00:36:00,54.5,48.0,29.88,SSW,201,0.0,1.0,80,0.00,,,0.00,weatherlink.com 1.10,2013-08-31 06:36:00,
2013-08-31 00:51:00,54.0,48.0,29.88,SSW,201,0.0,0.0,79,0.00,,,0.00,weatherlink.com 1.10,2013-08-31 06:51:00,
2013-08-31 01:06:00,53.3,49.0,29.88,SSW,201,0.0,0.0,84,0.00,,,0.00,weatherlink.com 1.10,2013-08-31 07:06:00,
2013-08-31 01:21:00,52.6,48.0,29.88,SSW,200,0.0,0.0,83,0.00,,,0.00,weatherlink.com 1.10,2013-08-31 07:21:00,
2013-08-31 01:36:00,52.0,47.0,29.88,SSW,201,0.0,1.0,83,0.00,,,0.00,weatherlink.com 1.10,2013-08-31 07:36:00,
2013-08-31 01:51:00,51.4,47.0,29.88,SSW,200,0.0,1.0,84,0.00,,,0.00,weatherlink.com 1.10,2013-08-31 07:51:00,
2013-08-31 02:06:00,50.2,46.0,29.88,SSW,200,0.0,0.0,85,0.00,,,0.00,weatherlink.com 1.10,2013-08-31 08:06:00,
2013-08-31 02:21:00,49.3,45.0,29.88,SSW,200,0.0,1.0,85,0.00,,,0.00,weatherlink.com 1.10,2013-08-31 08:21:00,
2013-08-31 02:36:00,48.5,45.0,29.88,SSW,200,0.0,0.0,87,0.00,,,0.00,weatherlink.com 1.10,2013-08-31 08:36:00,
2013-08-31 02:51:00,47.7,44.0,29.88,SSW,200,0.0,0.0,88,0.00,,,0.00,weatherlink.com 1.10,2013-08-31 08:51:00,
2013-08-31 03:06:00,47.2,44.0,29.88,SSW,200,0.0,0.0,89,0.00,,,0.00,weatherlink.com 1.10,2013-08-31 09:06:00,
2013-08-31 03:21:00,46.6,44.0,29.88,SSW,200,0.0,1.0,90,0.00,,,0.00,weatherlink.com 1.10,2013-08-31 09:21:00,
2013-08-31 03:36:00,46.5,44.0,29.88,SSW,200,0.0,1.0,90,0.00,,,0.00,weatherlink.com 1.10,2013-08-31 09:36:00,
2013-08-31 03:51:00,45.9,43.0,29.88,SSW,200,0.0,1.0,90,0.00,,,0.00,weatherlink.com 1.10,2013-08-31 09:51:00,
2013-08-31 04:06:00,45.9,43.0,29.88,SSW,200,0.0,1.0,89,0.00,,,0.00,weatherlink.com 1.10,2013-08-31 10:06:00,
2013-08-31 04:21:00,45.8,43.0,29.87,SSW,200,0.0,1.0,89,0.00,,,0.00,weatherlink.com 1.10,2013-08-31 10:21:00,
2013-08-31 04:36:00,45.3,43.0,29.87,SSW,203,0.0,1.0,90,0.00,,,0.00,weatherlink.com 1.10,2013-08-31 10:36:00,
2013-08-31 04:51:00,44.9,42.0,29.88,SSW,203,0.0,1.0,90,0.00,,,0.00,weatherlink.com 1.10,2013-08-31 10:51:00,
2013-08-31 05:06:00,44.4,42.0,29.88,SSW,203,0.0,0.0,91,0.00,,,0.00,weatherlink.com 1.10,2013-08-31 11:06:00,
2013-08-31 05:21:00,44.2,42.0,29.88,SSW,203,0.0,1.0,91,0.00,,,0.00,weatherlink.com 1.10,2013-08-31 11:21:00,
2013-08-31 05:36:00,43.9,42.0,29.88,SSW,203,0.0,1.0,91,0.00,,,0.00,weatherlink.com 1.10,2013-08-31 11:36:00,
2013-08-31 05:51:00,43.3,41.0,29.89,SSW,203,0.0,0.0,91,0.00,,,0.00,weatherlink.com 1.10,2013-08-31 11:51:00,
2013-08-31 06:06:00,42.7,41.0,29.89,SSW,203,0.0,0.0,93,0.00,,,0.00,weatherlink.com 1.10,2013-08-31 12:06:00,
2013-08-31 06:21:00,42.6,41.0,29.89,SSW,205,0.0,2.0,94,0.00,,,0.00,weatherlink.com 1.10,2013-08-31 12:21:00,
2013-08-31 06:36:00,42.8,41.0,29.89,SSW,207,0.0,1.0,92,0.00,,,0.00,weatherlink.com 1.10,2013-08-31 12:36:00,
2013-08-31 06:51:00,42.8,41.0,29.90,SSW,207,0.0,1.0,92,0.00,,,0.00,weatherlink.com 1.10,2013-08-31 12:51:00,
2013-08-31 07:06:00,42.3,41.0,29.91,SSW,207,0.0,2.0,93,0.00,,,0.00,weatherlink.com 1.10,2013-08-31 13:06:00,
2013-08-31 07:21:00,42.8,41.0,29.91,SSW,207,0.0,2.0,94,0.00,,,0.00,weatherlink.com 1.10,2013-08-31 13:21:00,
2013-08-31 07:37:00,44.2,42.0,29.91,SSW,204,0.0,0.0,92,0.00,,,0.00,weatherlink.com 1.10,2013-08-31 13:37:00,
2013-08-31 07:52:00,47.1,44.0,29.92,SSW,204,0.0,1.0,89,0.00,,,0.00,weatherlink.com 1.10,2013-08-31 13:52:00,
2013-08-31 08:07:00,49.5,45.0,29.91,SSW,204,0.0,0.0,85,0.00,,,0.00,weatherlink.com 1.10,2013-08-31 14:07:00,
2013-08-31 08:22:00,52.1,46.0,29.91,SSW,204,0.0,0.0,81,0.00,,,0.00,weatherlink.com 1.10,2013-08-31 14:22:00,
2013-08-31 08:37:00,54.5,46.0,29.91,SSW,205,1.0,4.0,74,0.00,,,0.00,weatherlink.com 1.10,2013-08-31 14:37:00,
2013-08-31 08:52:00,56.0,47.0,29.90,SSW,202,0.0,1.0,71,0.00,,,0.00,weatherlink.com 1.10,2013-08-31 14:52:00,
2013-08-31 09:07:00,57.0,49.0,29.89,SSW,201,0.0,0.0,75,0.00,,,0.00,weatherlink.com 1.10,2013-08-31 15:07:00,
2013-08-31 09:22:00,58.7,48.0,29.89,South,178,0.0,2.0,68,0.00,,,0.00,weatherlink.com 1.10,2013-08-31 15:22:00,
2013-08-31 09:37:00,61.1,45.0,29.88,South,172,0.0,2.0,56,0.00,,,0.00,weatherlink.com 1.10,2013-08-31 15:37:00,
2013-08-31 09:52:00,63.6,47.0,29.88,SSE,158,3.0,4.0,55,0.00,,,0.00,weatherlink.com 1.10,2013-08-31 15:52:00,
2013-08-31 10:07:00,64.9,46.0,29.87,SSE,160,3.0,5.0,50,0.00,,,0.00,weatherlink.com 1.10,2013-08-31 16:07:00,
2013-08-31 10:22:00,66.3,46.0,29.87,South,172,1.0,5.0,49,0.00,,,0.00,weatherlink.com 1.10,2013-08-31 16:22:00,
2013-08-31 10:37:00,67.2,46.0,29.86,SSE,156,4.0,9.0,47,0.00,,,0.00,weatherlink.com 1.10,2013-08-31 16:37:00,
2013-08-31 10:52:00,68.5,46.0,29.86,SSE,168,6.0,9.0,45,0.00,,,0.00,weatherlink.com 1.10,2013-08-31 16:52:00,
2013-08-31 11:07:00,67.7,46.0,29.86,SSE,153,4.0,10.0,46,0.00,,,0.00,weatherlink.com 1.10,2013-08-31 17:07:00,
2013-08-31 11:22:00,67.9,46.0,29.85,SE,146,4.0,10.0,46,0.00,,,0.00,weatherlink.com 1.10,2013-08-31 17:22:00,
2013-08-31 11:37:00,69.2,46.0,29.84,SSE,160,2.0,9.0,43,0.00,,,0.00,weatherlink.com 1.10,2013-08-31 17:37:00,
2013-08-31 11:52:00,69.4,48.0,29.83,SSE,166,2.0,12.0,47,0.00,,,0.00,weatherlink.com 1.10,2013-08-31 17:52:00,
2013-08-31 12:07:00,70.0,49.0,29.82,SE,145,3.0,11.0,47,0.00,,,0.00,weatherlink.com 1.10,2013-08-31 18:07:00,
2013-08-31 12:22:00,70.6,47.0,29.81,SE,143,6.0,12.0,43,0.00,,,0.00,weatherlink.com 1.10,2013-08-31 18:22:00,
2013-08-31 12:38:00,71.8,46.0,29.80,SE,137,5.0,12.0,40,0.00,,,0.00,weatherlink.com 1.10,2013-08-31 18:38:00,
2013-08-31 12:53:00,72.3,47.0,29.80,SSE,153,4.0,10.0,40,0.00,,,0.00,weatherlink.com 1.10,2013-08-31 18:53:00,
2013-08-31 13:08:00,73.7,44.0,29.79,ESE,118,11.0,11.0,35,0.00,,,0.00,weatherlink.com 1.10,2013-08-31 19:08:00,
2013-08-31 13:23:00,73.8,45.0,29.80,South,179,3.0,10.0,36,0.00,,,0.00,weatherlink.com 1.10,2013-08-31 19:23:00,
2013-08-31 13:38:00,74.0,45.0,29.80,South,190,1.0,10.0,36,0.00,,,0.00,weatherlink.com 1.10,2013-08-31 19:38:00,
2013-08-31 13:53:00,73.8,47.0,29.80,WSW,252,6.0,10.0,38,0.00,,,0.00,weatherlink.com 1.10,2013-08-31 19:53:00,
2013-08-31 14:08:00,75.2,43.0,29.79,South,172,2.0,9.0,32,0.00,,,0.00,weatherlink.com 1.10,2013-08-31 20:08:00,
2013-08-31 14:23:00,74.7,48.0,29.79,South,186,0.0,5.0,39,0.00,,,0.00,weatherlink.com 1.10,2013-08-31 20:23:00,
2013-08-31 14:38:00,73.2,45.0,29.78,SE,132,9.0,10.0,36,0.00,,,0.00,weatherlink.com 1.10,2013-08-31 20:38:00,
2013-08-31 14:53:00,72.3,44.0,29.78,South,174,1.0,6.0,36,0.00,,,0.00,weatherlink.com 1.10,2013-08-31 20:53:00,
2013-08-31 15:08:00,71.9,44.0,29.78,South,182,1.0,4.0,37,0.00,,,0.00,weatherlink.com 1.10,2013-08-31 21:08:00,
2013-08-31 15:23:00,70.4,44.0,29.78,South,189,0.0,3.0,39,0.00,,,0.00,weatherlink.com 1.10,2013-08-31 21:23:00,
2013-08-31 15:38:00,69.0,47.0,29.77,SSW,200,1.0,2.0,45,0.00,,,0.00,weatherlink.com 1.10,2013-08-31 21:38:00,
2013-08-31 15:53:00,65.5,51.0,29.80,SSE,161,2.0,5.0,60,0.03,,,0.03,weatherlink.com 1.10,2013-08-31 21:53:00,
2013-08-31 16:08:00,57.8,51.0,29.81,SSW,200,1.0,5.0,78,0.12,,,0.12,weatherlink.com 1.10,2013-08-31 22:08:00,
2013-08-31 16:23:00,55.4,52.0,29.81,SSW,198,1.0,5.0,87,0.16,,,0.16,weatherlink.com 1.10,2013-08-31 22:23:00,
2013-08-31 16:38:00,55.0,52.0,29.82,SSW,210,1.0,3.0,90,0.17,,,0.17,weatherlink.com 1.10,2013-08-31 22:38:00,
2013-08-31 16:53:00,55.1,51.0,29.82,South,184,0.0,1.0,87,0.13,,,0.17,weatherlink.com 1.10,2013-08-31 22:53:00,
2013-08-31 17:08:00,55.4,53.0,29.82,SSW,203,0.0,2.0,90,0.05,,,0.17,weatherlink.com 1.10,2013-08-31 23:08:00,
2013-08-31 17:23:00,55.4,53.0,29.83,South,187,0.0,1.0,90,0.01,,,0.17,weatherlink.com 1.10,2013-08-31 23:23:00,
2013-08-31 17:38:00,55.5,53.0,29.83,South,187,0.0,0.0,91,0.01,,,0.18,weatherlink.com 1.10,2013-08-31 23:38:00,
2013-08-31 17:53:00,55.5,54.0,29.82,SSW,204,0.0,2.0,93,0.01,,,0.18,weatherlink.com 1.10,2013-08-31 23:53:00,
2013-08-31 18:08:00,55.7,54.0,29.82,SSW,198,0.0,1.0,93,0.02,,,0.19,weatherlink.com 1.10,2013-09-01 00:08:00,
2013-08-31 18:23:00,55.8,54.0,29.82,South,183,0.0,0.0,92,0.02,,,0.19,weatherlink.com 1.10,2013-09-01 00:23:00,
2013-08-31 18:38:00,55.7,54.0,29.82,South,183,0.0,0.0,93,0.01,,,0.19,weatherlink.com 1.10,2013-09-01 00:38:00,
2013-08-31 18:53:00,55.5,54.0,29.82,South,183,0.0,0.0,93,0.01,,,0.19,weatherlink.com 1.10,2013-09-01 00:53:00,
2013-08-31 19:08:00,55.0,53.0,29.82,South,183,0.0,0.0,94,0.00,,,0.19,weatherlink.com 1.10,2013-09-01 01:08:00,
2013-08-31 19:23:00,54.5,53.0,29.83,South,183,0.0,0.0,94,0.00,,,0.19,weatherlink.com 1.10,2013-09-01 01:23:00,
2013-08-31 19:38:00,54.2,53.0,29.85,South,183,0.0,1.0,94,0.00,,,0.19,weatherlink.com 1.10,2013-09-01 01:38:00,
2013-08-31 19:53:00,53.9,53.0,29.86,SSW,200,0.0,1.0,95,0.00,,,0.19,weatherlink.com 1.10,2013-09-01 01:53:00,
2013-08-31 20:08:00,53.7,52.0,29.86,SSW,200,0.0,1.0,95,0.00,,,0.19,weatherlink.com 1.10,2013-09-01 02:08:00,
2013-08-31 20:23:00,53.7,52.0,29.87,SSW,200,0.0,1.0,95,0.00,,,0.19,weatherlink.com 1.10,2013-09-01 02:23:00,
2013-08-31 20:38:00,53.5,52.0,29.88,SSW,202,0.0,2.0,95,0.00,,,0.19,weatherlink.com 1.10,2013-09-01 02:38:00,
2013-08-31 20:53:00,53.0,51.0,29.89,SSW,201,0.0,0.0,94,0.00,,,0.19,weatherlink.com 1.10,2013-09-01 02:53:00,
2013-08-31 21:08:00,52.8,52.0,29.89,SSW,202,0.0,1.0,95,0.00,,,0.19,weatherlink.com 1.10,2013-09-01 03:08:00,
2013-08-31 21:23:00,52.4,51.0,29.89,SSW,201,0.0,1.0,95,0.00,,,0.19,weatherlink.com 1.10,2013-09-01 03:23:00,
2013-08-31 21:39:00,52.4,51.0,29.89,SSW,201,0.0,1.0,95,0.00,,,0.19,weatherlink.com 1.10,2013-09-01 03:39:00,
2013-08-31 21:53:00,52.2,51.0,29.90,SSW,201,0.0,0.0,95,0.00,,,0.19,weatherlink.com 1.10,2013-09-01 03:53:00,
2013-08-31 22:08:00,52.1,51.0,29.89,SSW,202,0.0,1.0,95,0.00,,,0.19,weatherlink.com 1.10,2013-09-01 04:08:00,
2013-08-31 22:23:00,51.6,50.0,29.89,SSW,202,1.0,1.0,95,0.00,,,0.19,weatherlink.com 1.10,2013-09-01 04:23:00,
2013-08-31 22:38:00,51.4,50.0,29.89,SSW,202,0.0,0.0,96,0.00,,,0.19,weatherlink.com 1.10,2013-09-01 04:38:00,
2013-08-31 22:53:00,51.1,50.0,29.89,SSW,201,1.0,1.0,96,0.00,,,0.19,weatherlink.com 1.10,2013-09-01 04:53:00,
2013-08-31 23:08:00,50.9,50.0,29.89,SSW,201,0.0,0.0,96,0.00,,,0.19,weatherlink.com 1.10,2013-09-01 05:08:00,
2013-08-31 23:23:00,50.2,49.0,29.90,SSW,201,0.0,0.0,95,0.00,,,0.19,weatherlink.com 1.10,2013-09-01 05:23:00,
2013-08-31 23:38:00,50.2,49.0,29.90,SSW,201,0.0,0.0,96,0.00,,,0.19,weatherlink.com 1.10,2013-09-01 05:38:00,
2013-08-31 23:53:00,50.5,49.0,29.90,SSW,201,0.0,0.0,96,0.00,,,0.19,weatherlink.com 1.10,2013-09-01 05:53:00,